Weather in Ubinskoe

Russia / Novosibirsk Oblast     55°17′58″N   79°41′09″E
temp.,
°C
wind,
m/s
gust,
m/s
humid.,
%
clouds,
%
prec.,
mm/h
press.,
hPa
HPBL,
m
3 march, wed
wed301:00−17sw229793 0.2 101625
04:00−17ssw239790 0.1 101665
07:00−19ssw349885 0.1 101745
10:00−17ssw359688 0.1 1017176
13:00−14s469590 0.1 1018302
16:00−11ssw5893100 0.1 1017421
19:00−12ssw51193100 0.1 1018464
22:00−15ssw61494100 0.0 1018386
4 march, thu
thu401:00−14ssw71494100 0.1 1018445
04:00−12ssw71394100 0.4 1016492
07:00−10ssw71393100 1.1 1016513
10:00−9ssw81493100 0.4 1014503
13:00−6ssw81493100 0.8 1014590
16:00−5ssw91592100 0.5 1012677
19:00−4ssw91691100 0.7 1012802
22:00−3ssw91689100 0.1 1010787
5 march, fri
fri501:00−4ssw91794100 0.4 1009702
04:00−4ssw81494100 0.6 1007597
07:00−5ssw81494100 1.7 1006606
10:00−4sw91595100 1.2 1006824
13:00−5wsw9148283 1.4 1010813
16:00−5sw8148367 0.0 1011788
19:00−7sw9169383 0.8 10131159
22:00−6wsw81491100 0.7 1014877
6 march, sat
sat601:00−7sw61392100 0.8 1016535
04:00−6sw61394100 0.1 1015548
07:00−4ssw71495100 0.9 1014838
10:00−5ssw101694100 1.2 1012817
13:00−5sw101594100 2.6 1010881
16:00−4sw101694100 1.7 1009994
19:00−4sw101790100 2.2 1009965
22:00−2sw91691100 0.3 10091065
7 march, sun
sun701:00−2wsw81487100 0.4 1011830
04:00−5sw51191100 0.0 1012355
07:00−5ssw51095100 0.1 1013383
10:00−5s61196100 0.4 1011403
13:00−3ssw91494100 1.1 1009717
16:00−3sw91492100 0.2 1008769
19:00−2sw81492100 0.3 1008912
22:00−1sw81593100 0.2 1008803